Theta_e
306 306 306 306 306 306 306 306 306 306 306 306 307 305 305 306 306 305 305 311 307 297 299 301 301 298 298 296 288 294 293 295 294 289 289 289 287 290 288 290 289 286 286 288 291 286 284 301 305 299 305 310 310 310
306 306 306 306 306 306 306 306 306 306 306 306 307 307 306 305 306 306 300 311 312 298 299 306 306 307 306 304 297 296 292 292 293 290 291 291 289 290 287 285 293 286 290 289 291 288 296 302 302 306 308 307 308 309
306 307 306 306 306 305 305 305 306 306 306 306 306 306 306 306 305 305 302 305 305 299 301 302 302 308 310 309 310 294 295 297 297 298 292 293 289 292 286 288 290 292 296 292 293 295 298 300 305 307 308 308 310 311
306 306 306 306 305 305 305 305 306 305 305 306 306 307 307 306 306 305 302 307 305 300 292 299 309 307 311 310 308 305 300 300 298 297 294 293 290 296 292 292 292 293 295 292 291 296 299 300 303 305 307 309 310 311
305 305 305 305 304 305 305 305 305 305 305 306 307 307 306 305 305 306 306 308 310 300 295 298 304 309 311 310 307 305 302 297 296 295 295 295 299 297 295 295 293 297 294 292 291 298 297 299 304 305 305 306 308 309
304 303 304 304 304 304 304 305 305 305 306 307 306 306 306 305 305 306 302 309 311 308 296 292 305 306 308 308 308 305 304 300 299 299 298 300 303 297 291 291 297 299 301 301 297 302 302 303 305 306 306 307 308 310
302 303 303 304 304 304 304 305 305 306 306 306 306 306 305 305 306 305 303 306 309 310 296 294 297 306 308 307 308 305 307 304 303 301 300 299 299 301 296 291 297 300 301 302 303 303 300 303 303 307 308 309 310 310
302 302 302 303 304 304 305 305 305 306 306 306 305 305 306 307 307 306 310 308 311 304 301 294 296 300 308 303 302 306 305 306 305 302 302 299 301 300 293 298 299 300 302 302 303 305 304 305 305 305 307 308 307 307
300 300 302 302 302 303 304 304 305 305 305 305 305 305 306 306 306 306 309 309 311 305 297 295 294 294 305 302 303 303 303 298 303 299 299 301 298 293 297 299 300 302 300 301 303 303 303 302 303 304 306 306 306 307
299 299 300 300 300 301 302 303 304 305 305 305 306 306 304 305 309 310 306 300 298 299 300 297 301 298 302 301 299 300 301 299 293 298 302 298 297 300 301 303 303 302 302 303 299 300 301 301 301 302 303 305 306 306
298 299 300 300 300 302 303 304 304 304 304 307 303 302 306 308 305 304 298 296 298 295 300 301 301 299 307 298 297 300 296 297 291 296 295 294 294 299 302 302 304 304 303 303 304 303 303 304 302 302 302 303 304 304
297 298 298 298 299 300 302 303 304 303 303 301 300 303 304 300 299 294 295 299 298 295 301 300 301 303 303 305 299 299 294 295 290 300 295 291 297 301 302 301 303 304 304 303 304 303 302 304 304 303 302 302 304 304
297 297 298 298 298 299 300 303 303 303 303 304 298 295 295 298 291 291 289 294 295 300 301 301 298 302 303 303 299 297 290 289 299 294 292 296 300 302 303 303 303 305 304 304 304 304 304 303 304 304 303 304 304 304
296 297 297 298 298 300 302 303 303 303 302 299 295 289 292 292 295 297 297 298 301 302 300 301 299 299 301 298 298 291 295 297 289 288 288 298 300 302 303 304 303 303 304 303 304 304 303 303 303 302 304 306 305 304
296 297 298 300 301 301 301 301 301 302 300 297 297 289 294 299 302 302 304 303 303 303 301 300 300 300 299 294 296 295 290 287 290 290 298 300 304 303 303 303 303 304 304 303 304 303 303 304 304 303 304 305 306 305
296 297 298 300 299 299 299 300 302 302 301 298 297 296 300 299 300 301 301 301 305 303 303 301 297 294 294 296 292 290 289 286 292 302 302 304 303 303 303 307 305 304 304 304 304 304 304 304 303 304 305 304 304 304
295 298 299 298 298 298 300 299 300 297 297 295 295 300 299 299 298 300 303 303 307 302 297 297 293 292 297 293 291 297 293 298 302 300 303 306 305 304 304 304 304 305 304 304 304 304 305 305 305 304 302 303 305 304
294 298 298 297 297 297 300 300 297 296 291 295 293 295 298 300 299 301 304 305 304 301 300 297 300 294 292 290 292 299 303 302 302 302 304 306 307 306 304 304 304 304 304 306 306 306 305 304 304 303 303 303 305 304
296 296 297 297 296 293 294 296 298 290 293 296 297 299 299 300 303 304 306 307 307 306 303 299 295 293 294 298 298 300 302 301 302 303 304 307 307 305 305 305 305 304 305 305 306 306 305 305 305 304 303 303 302 303
297 297 298 298 298 293 290 293 300 294 291 295 297 297 298 299 302 303 304 305 304 302 298 297 296 298 299 301 304 303 303 305 303 302 303 304 307 307 305 306 305 306 306 305 305 300 305 304 305 304 303 303 302 302
296 296 298 298 296 295 293 292 293 295 296 294 296 297 296 300 299 299 301 304 301 301 298 300 301 303 305 306 305 305 305 304 303 302 302 302 306 306 305 306 307 305 304 304 303 301 300 304 305 304 303 303 303 303
294 297 295 296 292 292 292 295 292 294 292 293 294 294 293 294 294 296 300 298 298 301 302 302 303 304 303 304 306 308 306 306 307 304 301 301 304 304 305 305 304 303 304 304 303 303 303 304 304 304 303 303 302 302
296 295 291 290 286 287 287 294 289 291 287 290 294 291 292 295 297 300 296 298 299 303 303 304 304 307 305 306 307 306 306 306 304 304 305 305 305 305 306 305 305 303 302 303 305 303 304 296 301 303 303 302 302 301
296 290 287 287 286 284 290 288 291 290 290 289 289 287 290 293 296 294 292 297 300 302 302 304 305 303 305 304 303 303 304 306 305 305 306 305 304 304 306 304 305 304 304 304 303 303 303 303 298 301 300 300 300 298
284 284 286 282 288 285 284 285 285 287 284 287 286 287 290 295 291 290 291 295 298 299 302 304 303 302 300 301 303 304 306 305 304 302 306 307 306 304 305 304 304 304 304 301 301 300 301 301 301 301 300 299 296 295
279 283 283 284 285 284 285 282 284 284 286 285 287 291 293 290 287 287 293 296 299 300 302 301 300 301 301 301 301 303 304 306 305 303 305 305 305 304 301 300 300 301 304 302 301 300 299 300 300 299 298 295 289 294
278 280 285 289 289 288 286 288 289 286 285 285 288 288 289 284 286 292 297 297 296 299 302 303 302 303 302 303 304 305 306 306 305 304 306 306 306 306 304 300 299 301 303 302 301 300 299 299 299 298 298 296 294 294
284 284 280 283 284 287 282 283 283 283 285 289 289 285 285 286 286 292 296 299 296 297 300 304 304 304 303 304 305 304 306 307 307 307 305 304 304 303 303 303 301 292 302 301 301 301 300 299 299 298 297 295 294 294
284 287 285 282 283 284 284 283 284 286 290 289 287 286 288 293 295 296 299 299 300 299 298 298 300 303 303 303 304 306 306 304 303 300 298 297 297 299 302 301 299 300 300 298 284 293 297 297 297 298 297 295 294 293
283 287 283 283 282 281 285 288 287 290 292 292 293 292 292 293 297 298 295 295 296 295 297 298 299 300 299 299 300 301 306 302 305 301 297 298 299 301 302 302 301 302 302 301 298 295 285 294 290 297 295 293 290 290
287 287 285 285 284 287 288 291 292 292 292 291 292 290 290 292 293 292 291 293 293 293 294 296 299 298 299 301 300 300 298 299 298 296 297 304 303 303 302 302 302 302 302 301 300 298 297 296 294 292 291 288 287 287
286 285 284 283 285 290 292 290 290 289 289 289 289 291 292 291 286 286 289 289 287 286 285 288 289 291 292 297 296 293 289 293 292 291 292 298 301 301 302 302 301 301 300 299 298 298 296 294 291 289 287 287 286 286
287 288 288 287 286 286 289 288 288 287 289 289 289 290 289 287 282 285 290 290 288 287 286 287 289 290 291 292 294 292 290 289 286 285 285 285 286 291 298 299 299 298 297 296 295 294 292 290 288 287 286 286 286 285
Wind_Speed
16 17 18 18 19 21 20 21 21 20 20 21 20 20 19 17 16 9 10 11 8 4 16 19 17 18 10 4 3 10 9 6 7 8 5 5 4 7 6 7 6 3 5 3 2 3 6 25 12 12 4 10 12 12
17 17 17 17 17 18 19 20 20 22 21 20 20 20 19 17 15 12 8 5 1 2 14 21 23 21 16 9 3 2 4 7 3 3 6 5 4 5 6 5 7 4 5 3 4 3 10 16 13 11 11 14 14 12
19 17 17 17 17 19 21 20 20 21 22 20 20 21 19 19 17 11 10 8 3 4 12 7 2 5 5 9 7 2 1 4 3 1 3 4 3 3 3 4 5 6 10 4 1 8 9 16 11 13 14 13 11 13
16 16 17 17 18 19 19 19 20 21 23 22 20 20 19 19 17 13 8 7 2 3 4 9 4 4 7 5 9 7 2 3 4 4 4 3 3 3 4 3 4 4 6 5 5 7 4 15 15 14 12 11 11 11
16 16 16 17 18 18 19 19 20 20 22 21 22 21 20 20 18 12 9 9 8 3 5 12 20 8 7 8 9 10 7 3 3 4 5 3 4 2 1 4 4 3 5 5 2 6 5 8 8 11 11 10 11 9
16 16 17 17 18 19 19 19 19 20 21 23 25 24 21 19 15 7 5 5 8 5 2 5 9 5 5 7 9 12 10 6 5 4 6 4 4 5 0 2 8 9 7 5 4 8 6 4 6 9 9 9 9 9
16 16 16 17 18 19 20 20 20 22 22 24 24 23 22 18 7 5 5 1 7 5 2 5 5 5 4 6 2 4 9 6 5 4 4 6 4 3 4 4 9 8 8 8 9 9 7 10 8 7 8 9 8 8
15 16 16 17 17 18 19 19 20 22 23 25 23 21 20 12 4 7 6 4 4 3 4 4 6 3 5 3 2 4 3 4 5 4 4 3 4 3 4 8 9 10 9 10 12 6 6 6 7 12 10 7 8 9
17 18 17 17 18 18 18 19 21 23 24 27 25 25 5 4 2 3 5 5 3 3 4 4 5 4 6 3 1 3 4 4 2 4 1 2 2 3 4 6 7 8 8 8 5 11 13 14 16 15 15 15 14 12
18 19 19 19 19 19 19 19 21 23 28 30 12 5 4 3 12 9 5 3 2 4 5 7 10 6 5 2 2 2 3 3 1 3 0 2 2 2 3 5 5 4 4 9 8 9 8 7 12 14 17 17 15 13
18 19 19 19 20 19 20 20 19 21 19 5 4 3 7 5 5 5 4 6 6 6 7 8 11 7 1 5 0 2 3 3 3 3 2 3 4 3 5 7 5 4 5 5 6 10 11 15 10 9 10 11 12 12
18 19 20 20 20 20 21 20 12 9 7 9 8 9 5 4 5 4 5 6 8 6 6 8 7 8 3 2 1 3 2 4 4 3 3 3 5 6 5 4 6 5 6 8 9 11 12 15 13 11 9 8 11 12
19 20 21 21 21 20 20 12 13 15 16 2 3 3 4 5 5 8 6 5 5 6 4 3 5 5 5 2 2 1 3 5 7 3 2 3 8 7 7 4 3 8 8 9 10 10 11 13 11 5 6 8 7 9
19 21 22 22 22 16 7 13 16 12 6 4 5 5 7 7 7 7 8 7 3 2 4 3 4 5 2 4 3 4 5 2 3 3 2 7 5 8 6 4 3 1 3 5 9 9 10 11 10 13 11 10 8 10
20 23 22 12 8 9 14 16 18 5 5 6 5 6 8 10 10 8 9 9 4 1 6 4 3 4 3 2 3 1 3 3 5 4 1 1 5 4 4 1 1 5 2 5 5 8 8 9 9 11 12 12 13 12
21 23 4 11 14 17 19 16 12 6 5 6 9 9 9 11 10 8 10 9 6 4 4 3 3 2 4 4 4 5 2 5 4 3 5 4 5 3 2 5 2 3 5 3 5 8 8 9 10 10 10 11 10 13
20 3 14 18 21 22 17 7 5 7 8 7 7 9 12 13 13 13 12 9 4 7 6 3 4 6 4 3 4 5 5 4 5 7 6 6 5 4 2 1 2 4 1 5 3 4 8 7 8 9 10 9 8 10
12 11 19 20 17 15 6 6 6 6 10 10 10 11 13 13 12 12 11 9 9 9 8 9 6 5 5 3 3 5 5 6 8 7 5 7 6 3 4 5 4 3 3 3 2 4 7 5 6 7 9 10 7 10
14 15 22 22 13 6 5 6 6 6 8 10 10 11 13 11 11 12 11 9 7 8 7 5 8 8 9 10 11 9 7 6 9 6 2 6 9 11 5 2 2 2 1 1 3 2 1 1 6 4 7 7 8 9
22 20 17 16 6 4 5 6 6 6 6 6 10 11 11 11 11 11 10 8 8 7 9 10 12 11 9 10 8 6 6 4 8 8 6 4 5 4 2 2 4 4 4 2 5 3 4 3 5 6 5 4 7 8
17 1 11 7 6 9 6 6 7 7 9 11 11 10 9 11 11 11 11 9 11 10 10 9 11 11 12 11 10 9 8 7 5 7 9 2 5 5 5 4 7 6 7 4 3 4 3 5 5 4 4 8 7 8
12 14 8 5 5 6 8 8 7 6 10 13 13 13 12 11 12 14 12 11 11 12 12 10 11 11 11 13 12 10 11 11 8 3 7 13 10 8 8 10 9 5 3 3 4 4 3 6 5 6 8 6 7 9
14 6 4 6 8 6 8 9 15 13 10 9 10 11 10 11 13 12 12 12 12 13 12 12 13 13 10 12 13 11 11 11 7 6 5 8 7 9 8 7 5 5 5 5 1 2 6 2 4 2 4 5 6 7
7 5 6 7 11 7 7 10 4 6 9 12 13 20 17 13 12 10 5 11 11 9 10 8 5 3 10 11 8 8 9 7 7 6 3 3 7 5 5 4 7 5 3 3 0 4 4 2 5 0 5 7 6 5
5 7 7 8 5 6 8 13 15 14 20 18 19 16 10 8 8 12 15 10 10 8 7 4 5 9 7 6 7 8 6 5 7 4 7 6 6 5 9 9 6 7 6 3 3 3 2 5 6 5 7 6 6 4
7 6 7 6 7 9 11 16 17 16 14 17 15 13 11 11 14 8 8 8 6 2 6 3 7 5 3 5 3 5 5 4 5 5 8 7 7 10 8 7 7 7 7 5 2 2 3 4 6 5 8 9 5 4
8 10 8 13 13 13 8 7 11 7 5 5 4 6 6 5 6 3 8 9 10 12 16 6 4 2 4 5 7 7 3 4 3 3 6 3 8 7 6 7 11 9 7 5 5 4 3 4 6 5 5 8 4 4
10 9 18 14 15 11 17 14 15 17 10 7 5 4 4 4 5 4 8 6 9 13 13 12 3 5 5 4 4 5 4 5 7 6 5 6 5 4 10 10 10 14 10 7 4 4 4 5 6 6 5 7 5 4
12 11 15 19 18 15 14 16 16 11 11 13 11 4 5 3 5 2 6 5 3 6 10 12 8 6 5 6 6 1 3 3 11 13 15 10 7 6 9 9 7 7 8 8 8 7 7 6 5 6 8 7 5 4
15 13 15 18 19 19 14 12 14 13 10 12 9 7 10 10 8 8 8 7 7 8 8 10 11 10 10 7 7 6 7 7 8 5 7 6 10 9 10 11 9 9 11 12 10 9 5 7 5 7 8 7 4 2
6 7 13 14 16 15 14 13 12 12 11 11 11 10 10 2 5 9 10 9 8 9 11 11 10 12 12 8 7 7 7 8 12 15 15 10 2 4 6 6 4 5 3 7 10 9 8 10 9 8 7 7 4 2
5 7 8 13 13 12 13 12 12 12 10 10 11 10 9 8 7 4 8 9 9 8 8 8 7 8 11 5 7 8 10 9 10 9 13 10 10 11 8 8 7 3 4 6 11 10 13 11 9 8 5 4 4 3
5 10 11 8 6 8 7 2 4 6 8 9 11 11 5 4 6 5 5 8 6 6 5 5 6 6 8 12 10 9 11 10 12 13 14 15 16 13 9 8 7 7 8 8 9 10 11 13 10 8 4 4 5 6
Wind_Direction
302 303 309 313 314 316 314 314 317 317 320 324 323 323 322 319 318 315 288 294 278 259 289 287 310 297 295 274 279 316 328 6 326 350 348 346 331 356 338 337 345 335 307 93 226 66 273 322 18 65 144 75 69 56
301 300 302 307 310 310 310 310 309 315 319 318 320 321 318 315 313 310 279 297 59 188 276 291 280 274 272 290 254 337 296 309 328 318 345 324 334 338 325 338 345 31 358 345 26 99 274 289 38 32 50 57 52 56
302 303 302 303 306 311 313 310 308 309 316 316 318 318 316 312 311 294 285 289 251 267 286 290 279 249 237 213 163 205 241 328 291 9 297 298 320 319 327 8 298 347 358 29 89 17 315 339 32 42 42 46 33 32
301 304 306 304 304 304 307 309 308 310 314 315 315 315 316 310 308 298 269 255 237 283 278 294 317 226 209 159 161 195 256 249 291 284 261 271 260 194 340 302 7 358 346 15 44 2 1 342 12 13 27 30 39 27
303 308 309 307 306 306 303 305 309 307 309 312 314 317 317 311 304 285 257 242 227 239 300 310 305 259 174 199 183 174 204 225 259 262 230 269 268 183 76 257 30 27 29 24 25 304 353 323 21 6 7 26 22 2
307 306 304 306 307 305 304 304 304 305 306 308 314 314 313 308 311 254 243 181 217 217 298 293 334 240 212 237 233 183 198 204 227 265 279 261 254 348 329 7 13 21 22 14 313 324 297 11 342 343 352 10 15 348
305 309 308 311 313 310 307 304 304 305 306 307 307 313 310 302 261 265 19 316 138 136 240 271 261 203 205 256 230 242 189 218 247 266 262 297 348 36 334 32 10 25 21 4 4 352 1 346 347 341 9 8 355 351
312 312 309 313 315 316 313 310 307 305 305 302 305 313 316 312 240 258 186 202 177 236 225 274 281 283 176 265 223 248 239 212 211 259 273 319 320 72 50 29 24 356 341 32 353 1 332 360 0 13 355 3 2 3
314 313 312 313 314 314 318 317 313 310 305 299 305 302 276 231 211 114 133 141 232 284 275 225 280 275 170 240 306 221 233 228 189 232 263 357 28 59 348 22 20 10 17 1 18 26 35 24 19 5 3 16 7 10
317 317 316 316 318 318 313 313 312 312 304 299 289 214 177 53 124 143 165 179 196 206 233 256 253 254 277 138 291 301 319 290 218 284 37 65 95 77 353 84 105 73 13 15 21 29 29 48 50 31 20 17 13 4
320 317 314 317 321 322 323 317 315 314 295 316 317 349 344 166 249 216 222 214 173 222 209 234 243 242 303 325 171 336 311 283 256 229 212 179 173 166 106 144 162 88 45 9 356 52 44 68 56 53 34 23 13 359
323 322 317 317 317 320 320 322 325 305 339 321 298 298 282 263 235 222 241 213 196 232 163 233 192 237 111 87 80 259 261 312 260 319 214 208 150 170 163 122 73 45 38 26 38 37 43 64 53 48 34 29 21 11
322 318 318 321 315 312 310 308 325 306 296 206 210 233 237 222 228 221 214 235 232 206 221 186 223 163 180 103 176 223 262 247 330 265 250 136 160 165 145 128 98 5 27 6 17 34 44 58 69 82 40 43 36 5
321 318 318 316 313 310 291 309 320 323 284 248 224 234 228 213 229 215 244 251 260 16 309 242 235 162 209 168 187 222 220 222 271 252 211 159 151 141 150 136 111 47 10 16 348 18 20 45 49 37 33 32 25 9
323 318 316 311 343 333 320 316 308 282 278 265 240 242 236 239 271 260 239 258 272 153 285 291 270 267 140 291 236 275 246 247 221 243 197 119 237 105 99 250 109 174 84 30 16 348 3 20 32 50 34 24 29 4
325 308 34 9 353 338 323 308 283 220 250 243 233 258 274 277 272 250 242 245 254 245 220 248 265 265 219 201 185 214 218 228 249 249 275 127 113 94 139 142 195 323 50 15 346 2 2 3 13 40 36 32 22 23
309 246 7 357 346 324 305 283 242 207 242 240 245 251 264 278 285 294 299 309 283 219 216 213 223 231 215 199 211 179 202 232 234 236 234 100 184 180 177 218 209 164 120 81 296 356 353 1 353 32 22 29 35 31
287 315 346 335 331 307 275 202 270 250 228 235 255 263 267 271 277 278 261 251 256 259 248 208 256 209 239 212 228 214 215 243 246 263 225 203 209 208 220 208 193 152 139 87 59 46 298 9 345 35 6 6 21 35
310 311 304 301 302 305 277 209 225 260 257 268 264 264 269 269 269 280 280 272 272 278 261 225 230 238 245 250 263 261 235 206 253 246 327 209 192 205 248 330 166 234 190 8 276 234 23 28 54 25 33 353 7 37
295 286 282 298 225 254 258 261 226 255 271 281 287 286 286 286 281 272 269 256 260 250 246 247 250 250 258 277 289 268 267 241 204 230 184 232 228 157 205 254 261 216 216 263 240 105 352 2 120 58 25 339 32 30
295 52 278 288 239 225 267 254 243 252 263 258 266 276 286 297 295 282 267 228 231 239 238 232 246 264 272 277 277 288 284 288 248 203 246 217 146 157 202 257 255 190 182 238 313 135 200 58 18 35 8 45 33 58
280 279 285 276 247 247 239 226 250 275 292 286 290 284 280 278 278 281 291 280 242 234 243 246 239 245 257 266 261 264 256 250 246 212 128 146 198 182 186 214 199 186 184 99 263 23 36 69 26 15 27 12 36 71
264 251 214 233 239 246 258 231 240 245 251 276 297 300 276 251 258 264 246 242 252 255 248 239 248 246 253 279 263 266 274 262 244 197 208 226 183 166 184 173 167 194 182 172 176 156 91 94 130 15 53 38 26 26
257 231 224 231 203 251 243 253 238 252 264 264 266 267 265 284 288 281 255 274 272 267 270 245 247 225 246 242 253 264 258 226 221 227 245 38 103 113 139 185 230 170 134 78 17 91 127 151 100 354 55 38 29 45
258 230 235 243 246 253 250 255 255 254 258 265 272 275 276 282 294 286 283 267 264 273 289 231 266 251 257 253 239 237 231 237 220 230 116 144 141 75 248 194 190 126 115 103 43 342 102 136 107 57 68 61 28 2
242 236 226 235 235 240 245 261 268 274 273 276 270 260 259 273 254 253 249 260 293 254 227 223 254 258 282 294 260 208 230 217 217 212 161 146 185 195 194 195 168 118 112 111 114 73 44 57 79 74 114 100 86 0
228 239 252 262 269 279 274 273 283 287 298 282 320 343 253 239 238 26 9 25 356 337 327 309 300 311 27 16 345 342 45 164 253 309 148 147 154 180 183 190 127 126 114 120 127 106 89 84 84 84 97 102 75 37
226 244 253 257 261 276 288 284 285 294 284 247 273 255 309 23 38 313 328 28 8 331 327 293 338 41 27 65 326 339 345 42 113 106 128 119 178 113 98 87 74 77 84 60 44 104 102 102 110 111 99 101 88 70
241 247 253 255 261 264 269 269 265 259 271 279 291 288 282 284 34 40 17 25 4 310 320 341 355 342 352 333 322 32 123 199 227 175 165 172 162 161 127 117 128 133 124 106 52 75 79 77 66 95 89 90 76 65
261 258 260 261 261 262 264 256 260 265 254 250 260 243 267 285 51 39 34 5 349 326 314 318 326 345 332 312 300 305 74 67 1 7 328 270 207 192 164 150 169 189 155 152 147 136 116 141 121 132 109 82 68 58
251 271 271 259 257 260 264 267 269 274 266 261 264 264 261 164 93 50 27 5 0 1 5 359 357 19 352 354 9 14 73 43 42 24 348 265 319 118 126 110 16 359 193 160 145 163 159 101 88 77 83 95 75 41
222 239 251 258 264 258 259 263 266 263 258 258 265 277 283 271 77 52 22 17 18 15 6 354 359 351 350 37 59 51 40 47 29 22 2 15 41 47 77 81 73 69 264 92 87 86 94 94 96 88 75 88 91 69
248 257 254 260 264 270 252 248 291 271 260 256 262 271 60 50 68 30 38 16 11 10 2 347 355 359 10 24 42 69 74 70 59 48 42 41 45 42 36 46 54 62 66 80 86 99 98 103 106 105 99 96 100 101